DW9615 Home Hill AU current weather conditions

sailwx.info

Wind from 124 at 4 knots gusting 9

Air temperature 32.8° C
Dewpoint 25.8° C

Last reported at 2015-Jan-29 03:36 UTC.
Time now 2015-Jan-29 04:20 UTC

Location: S 19°40' E 147°25'.
View on Google Maps.

See reports from other nearby stations

  
Tides and Currents Weather Stations Pressure Air Temp Water Temp Dewpoint Dewpoint Depression Visibility Wind Speed Wind Dir Waves Ship Positions
date/time (UTC)wind fromknots sea level pressurealtimeterstation pressurevisibilityair tempwater tempwave heightnotes
2015-Jan-29 03:36 124 4 gusting 9 32.8
2015-Jan-29 03:21 086 5 gusting 9 32.8
2015-Jan-29 03:06 101 6 gusting 9 32.2
2015-Jan-29 02:51 055 4 gusting 11 32.2
2015-Jan-29 02:36 070 7 gusting 12 31.7
2015-Jan-29 02:21 096 2 gusting 9 32.8
2015-Jan-29 02:06 072 5 gusting 8 32.2
2015-Jan-29 01:51 144 2 gusting 9 31.7
2015-Jan-29 01:36 158 2 gusting 9 31.1
2015-Jan-29 01:21 154 4 gusting 9 31.7
2015-Jan-29 01:06 108 4 gusting 9 31.7
2015-Jan-29 00:51 114 6 gusting 9 31.1
2015-Jan-29 00:36 086 3 gusting 10 31.1
2015-Jan-29 00:21 138 4 gusting 9 31.1
2015-Jan-29 00:06 107 2 gusting 10 30.6
2015-Jan-28 23:50 072 4 gusting 10 30.6
2015-Jan-28 23:35 093 1 gusting 8 30.0
2015-Jan-28 23:20 097 3 gusting 7 30.0
2015-Jan-28 23:05 095 3 gusting 9 30.0
2015-Jan-28 22:50 101 1 gusting 7 30.0
2015-Jan-28 22:35 105 3 gusting 8 29.4
2015-Jan-28 22:20 115 1 gusting 5 28.3
2015-Jan-28 22:05 162 0 gusting 4 27.8
2015-Jan-28 21:50 225 0 gusting 5 27.2
2015-Jan-28 21:35 140 1 gusting 5 27.2
2015-Jan-28 21:20 162 0 gusting 2 26.7
2015-Jan-28 21:05 183 0 gusting 3 26.7
2015-Jan-28 20:50 177 26.1
2015-Jan-28 20:35 154 1 gusting 4 26.1
2015-Jan-28 20:20 152 0 gusting 2 25.6
2015-Jan-28 20:05 192 25.6
2015-Jan-28 19:50 154 25.6
2015-Jan-28 19:35 154 25.6
2015-Jan-28 19:20 154 25.6
2015-Jan-28 19:05 164 25.6
2015-Jan-28 18:50 115 26.1
2015-Jan-28 18:35 094 26.1
2015-Jan-28 18:20 093 26.1
2015-Jan-28 18:05 098 26.7
2015-Jan-28 17:50 076 26.1
2015-Jan-28 17:35 093 26.1
2015-Jan-28 17:20 093 26.1
2015-Jan-28 17:05 096 26.7
2015-Jan-28 16:50 100 26.1
2015-Jan-28 16:35 105 26.1
2015-Jan-28 16:20 104 26.1
2015-Jan-28 16:05 102 26.1
2015-Jan-28 15:49 102 26.1
2015-Jan-28 15:34 112 26.1
2015-Jan-28 15:19 117 26.1
2015-Jan-28 15:04 103 25.6
2015-Jan-28 14:49 104 26.1
2015-Jan-28 14:34 098 26.7
2015-Jan-28 14:19 098 26.7
2015-Jan-28 14:04 098 26.7
2015-Jan-28 13:49 098 26.7
2015-Jan-28 13:34 098 26.7
2015-Jan-28 13:19 098 26.7
2015-Jan-28 13:04 098 26.7
2015-Jan-28 12:49 098 26.7
2015-Jan-28 12:34 100 27.2
2015-Jan-28 12:19 100 27.2
2015-Jan-28 12:04 100 26.7
2015-Jan-28 11:49 098 26.7
2015-Jan-28 11:34 098 26.7
2015-Jan-28 11:19 098 27.2
2015-Jan-28 11:04 098 27.8
2015-Jan-28 10:49 050 27.8
2015-Jan-28 10:34 087 27.8
2015-Jan-28 10:19 088 28.3
2015-Jan-28 10:04 049 28.3
2015-Jan-28 09:49 055 28.9
2015-Jan-28 09:34 360 28.9
2015-Jan-28 09:19 032 0 gusting 4 29.4
2015-Jan-28 09:05 003 0 gusting 3 29.4
2015-Jan-28 08:49 062 30.0
2015-Jan-28 08:34 332 30.6
2015-Jan-28 08:19 050 31.1
2015-Jan-28 08:04 048 1 gusting 6 31.7
2015-Jan-28 07:49 074 0 gusting 6 32.2
2015-Jan-28 07:34 069 2 gusting 6 32.2
2015-Jan-28 07:19 062 2 gusting 6 32.8
2015-Jan-28 07:04 069 0 gusting 6 33.9
2015-Jan-28 06:49 046 1 gusting 5 33.9
2015-Jan-28 05:34 069 1 gusting 6 35.6
2015-Jan-28 05:19 041 1 gusting 5 35.6
2015-Jan-28 05:04 329 35.6
2015-Jan-28 04:49 053 2 gusting 7 35.0
2015-Jan-28 04:34 010 2 gusting 8 35.0
2015-Jan-28 04:19 053 1 gusting 8 35.0
2015-Jan-28 04:04 354 2 gusting 7 35.6
2015-Jan-28 03:49 349 1 gusting 6 35.0
2015-Jan-28 03:33 022 2 gusting 6 35.0
2015-Jan-28 03:18 357 2 gusting 7 35.0
2015-Jan-28 03:03 039 2 gusting 7 35.6
2015-Jan-28 02:48 018 4 gusting 9 35.0
2015-Jan-28 02:33 322 3 gusting 7 35.6
2015-Jan-28 02:18 005 2 gusting 5 34.4
2015-Jan-28 02:03 330 2 gusting 6 35.0
2015-Jan-28 01:48 076 0 gusting 5 34.4
2015-Jan-28 01:33 308 3 gusting 7 34.4
2015-Jan-28 01:18 017 2 gusting 6 34.4
2015-Jan-28 01:03 059 1 gusting 4 33.9
2015-Jan-28 00:48 325 33.9
2015-Jan-28 00:33 346 1 gusting 6 33.3
2015-Jan-28 00:18 294 2 gusting 6 33.3
2015-Jan-28 00:03 339 33.3
2015-Jan-27 23:48 344 1 gusting 4 33.3
2015-Jan-27 23:33 344 33.3
2015-Jan-27 23:18 330 32.8
2015-Jan-27 23:03 354 1 gusting 4 32.2
2015-Jan-27 22:48 317 0 gusting 4 32.2
2015-Jan-27 22:33 026 31.7
2015-Jan-27 22:18 317 31.7
2015-Jan-27 22:03 072 31.1
2015-Jan-27 21:48 084 31.1
2015-Jan-27 21:32 079 30.6
2015-Jan-27 21:17 081 30.0
2015-Jan-27 21:02 103 28.9
2015-Jan-27 20:47 103 27.8
2015-Jan-27 20:32 069 26.7
2015-Jan-27 20:17 069 25.6
2015-Jan-27 20:02 069 25.0
2015-Jan-27 19:47 069 25.6
2015-Jan-27 19:32 069 25.0
2015-Jan-27 19:17 069 25.6
2015-Jan-27 19:02 068 25.6
2015-Jan-27 18:47 068 25.6
2015-Jan-27 18:32 069 26.1
2015-Jan-27 18:17 069 26.7
2015-Jan-27 18:02 068 26.7
2015-Jan-27 17:47 070 0 gusting 1 26.7
2015-Jan-27 17:32 353 27.2
2015-Jan-27 17:17 072 27.2
2015-Jan-27 17:02 100 27.2
2015-Jan-27 16:47 074 27.2
2015-Jan-27 16:32 079 26.7
2015-Jan-27 16:17 098 26.7
2015-Jan-27 16:02 098 26.7
2015-Jan-27 15:47 098 26.7
2015-Jan-27 15:32 098 26.7
2015-Jan-27 15:17 098 26.7
2015-Jan-27 15:02 098 27.2
2015-Jan-27 14:47 072 27.2
2015-Jan-27 14:32 073 27.2
2015-Jan-27 14:17 094 27.8
2015-Jan-27 14:02 063 27.8
2015-Jan-27 13:47 068 27.8
2015-Jan-27 13:31 069 27.8
2015-Jan-27 13:16 074 27.8
2015-Jan-27 13:01 064 0 gusting 3 27.8
2015-Jan-27 12:46 059 27.8
2015-Jan-27 12:31 055 28.3
2015-Jan-27 12:16 072 0 gusting 3 28.3
2015-Jan-27 12:01 069 0 gusting 4 28.3
2015-Jan-27 11:46 076 0 gusting 3 28.3
2015-Jan-27 11:31 069 28.3
2015-Jan-27 11:16 074 28.3
2015-Jan-27 11:01 076 28.3
2015-Jan-27 10:46 076 28.3
2015-Jan-27 10:31 069 28.3
2015-Jan-27 10:16 066 28.9
2015-Jan-27 10:01 073 28.9
2015-Jan-27 09:46 059 28.9
2015-Jan-27 09:31 081 0 gusting 4 28.9
2015-Jan-27 09:16 070 29.4
2015-Jan-27 09:01 048 0 gusting 5 29.4
2015-Jan-27 08:46 072 3 gusting 6 30.0
2015-Jan-27 08:31 066 2 gusting 7 30.0
2015-Jan-27 08:16 073 5 gusting 9 30.6
2015-Jan-27 08:01 081 3 gusting 8 31.1
2015-Jan-27 07:46 138 3 gusting 9 31.1
2015-Jan-27 07:31 084 4 gusting 8 31.7
2015-Jan-27 07:16 080 3 gusting 9 31.7
2015-Jan-27 07:01 101 3 gusting 12 32.2
2015-Jan-27 06:46 036 4 gusting 11 32.2
2015-Jan-27 05:46 074 3 gusting 8 33.9
2015-Jan-27 05:31 101 4 gusting 8 34.4
2015-Jan-27 05:16 036 0 gusting 7 34.4
2015-Jan-27 05:01 107 2 gusting 6 35.0
2015-Jan-27 04:46 095 2 gusting 6 35.6
2015-Jan-27 04:31 055 0 gusting 4 37.2
2015-Jan-27 04:16 258 0 gusting 3 37.2
2015-Jan-27 04:01 136 0 gusting 4 36.7